Regional Weather Roundup
Issued by NWS Upton, NY

Current Version | Previous Version | Text Only | Print | Product List | Glossary On
Versions: 1 2 3 4 5 6 7 8 9 10 11 12 13 14 15 16 17 18 19 20 21 22 23 24 25 26 27 28 29 30 31 32 33 34 35 36 37 38 39 40 41 42 43 44 45 46 47 48 49 50
000
ASUS41 KOKX 060005
RWROKX

REGIONAL WEATHER ROUNDUP
NATIONAL WEATHER SERVICE NEW YORK NY
700 PM EST THU MAR 05 2015

NOTE: "FAIR" INDICATES FEW OR NO CLOUDS BELOW 12,000 FEET WITH NO
SIGNIFICANT WEATHER AND/OR OBSTRUCTIONS TO VISIBILITY.

NYZ071-072-176-178-NJZ106-104-060100-
NEW YORK CITY METRO AREA


CITY           SKY/WX    TMP DP  RH WIND       PRES   REMARKS
CENTRAL PARK   CLOUDY    21  14  74 VRB3      30.26R HAZE
LAGUARDIA APRT FLURRIES  23  14  68 N8        30.25R WCI  14
KENNEDY INTL   FLURRIES  23  16  74 NW14      30.26R WCI  11
NEWARK/LIBERTY FLURRIES  22  15  75 NW12      30.26R WCI  10
BRNX BOT. GARD   N/A    N/A N/A N/A W3        30.26R
TETERBORO      FLURRIES  22  14  71 W5        30.25R WCI  16
$$

NYZ177-179-078>081-060100-
LONG ISLAND NEW YORK

CITY           SKY/WX    TMP DP  RH WIND       PRES   REMARKS
FARMINGDALE    CLOUDY    21  14  74 NW9       30.25R WCI  11
ISLIP          CLOUDY    20  15  81 NW12      30.20S WCI   8
SHIRLEY        LGT SNOW  20  16  84 NW13      30.23R FOG     WCI   7
WESTHAMPTON    LGT SNOW  21  17  84 NW14      30.21R FOG     WCI   8
MONTAUK POINT    N/A     24  20  84 NW14      30.19R WCI  12
$$

NYZ052-065-067-060100-
HUDSON VALLEY

CITY           SKY/WX    TMP DP  RH WIND       PRES   REMARKS
WHITE PLAINS   FLURRIES  20  14  77 NW7       30.21R WCI  11
NEWBURGH       CLOUDY    21   5  49 NW9       30.24R WCI  11
MONTGOMERY     CLOUDY    21   2  43 NW9       30.25R WCI  11
POUGHKEEPSIE   CLOUDY    22   7  52 NE5       30.25R WCI  16
ALBANY         CLOUDY    18   0  45 W18G25    30.28R WCI   2
$$

NJZ001-105-106-008-010-013-015-019>022-104-060100-
NEW JERSEY

CITY           SKY/WX    TMP DP  RH WIND       PRES   REMARKS
NEWARK/LIBERTY FLURRIES  22  15  75 NW12      30.26R WCI  10
TETERBORO      FLURRIES  22  14  71 W5        30.25R WCI  16
CALDWELL       CLOUDY    21  11  65 W6        30.27R WCI  13
MORRISTOWN     CLOUDY    21  12  68 NW6       30.28R WCI  14
SOMERVILLE     CLOUDY    21  13  71 NW7       30.25R WCI  12
SUSSEX         CLOUDY    21   1  41 N8        30.24R WCI  11
ANDOVER          N/A     19   5  54 N3        30.24R
TRENTON        CLOUDY    20  13  74 NW8G21    30.25R WCI  10
MILLVILLE      FLURRIES  21  52 100 N16G24    30.26R WCI   7
ATLANTIC CITY  LGT SNOW  21  17  84 N13       30.25R FOG     WCI   9
WRIGHTSTOWN    MOCLDY    19  14  79 NW13      30.25R WCI   7
TOMS RIVER     CLOUDY    21  16  79 NW9G17    30.26R WCI  11
BELMAR         CLOUDY    19  12  73 NW14      30.24R WCI   6
$$

PAZ047>061-062-071-060100-
EASTERN PENNSYLVANIA

CITY           SKY/WX    TMP DP  RH WIND       PRES   REMARKS
PHILADELPHIA   CLOUDY    21  13  71 N10       30.31R WCI  10
ALLENTOWN      CLOUDY    20   5  52 NW10      30.29R WCI   9
SCRANTON       CLOUDY    17   2  51 N8        30.27R WCI   7
$$

CTZ002-004>006-009-010-012-RIZ004-006-007-MAZ004-011-015-060100-
SOUTHERN NEW ENGLAND
 IN CT

CITY           SKY/WX    TMP DP  RH WIND       PRES   REMARKS
BRADLEY INTL   CLOUDY    24   6  46 NW9       30.20R WCI  14
HARTFORD       CLOUDY    24   6  46 NW7G18    30.22R WCI  16
DANBURY        CLOUDY    20   3  48 NW8       30.23R WCI  10
WTRBRY/OXFORD  CLOUDY    19   1  45 MISG      30.21R
BRIDGEPORT     CLOUDY    22  11  62 NW9       30.23R WCI  12
MERIDEN        CLOUDY    23   7  50 NW12      30.23R WCI  12
NEW HAVEN      CLOUDY    23  13  65 NW7       30.22R WCI  15
CHESTER        MOCLDY    23  18  80 NW5       30.18R WCI  17
GROTON         FLURRIES  22  17  81 NW10      30.19R WCI  11
WILLIMANTIC    CLOUDY    24   5  44 NW5       30.18R WCI  18

 IN RI

CITY           SKY/WX    TMP DP  RH WIND       PRES   REMARKS
PROVIDENCE     CLOUDY    23  17  78 W5        30.20R WCI  17
BLOCK ISLAND   CLOUDY    25  19  80 NW12G17   30.15R WCI  14
WESTERLY       LGT SNOW  23  20  88 NW7       30.18S FOG     WCI  15

 IN MA

CITY           SKY/WX    TMP DP  RH WIND       PRES   REMARKS
BOSTON         CLOUDY    23   1  38 NW15      30.21R WCI  10
WORCESTER      CLOUDY    20   0  41 N9        30.13R WCI   9
WESTFIELD      CLOUDY    22   3  44 NW7       30.20R WCI  13
PROVINCETOWN   CLOUDY    25  12  58 NW6       30.16R WCI  18
NANTUCKET      LGT SNOW  24  20  84 N16       30.13S VSB 1   WCI  11
$$

ANZ330-335-338-340-345-350-353-355-060100-
COASTAL MARINE OBSERVATIONS


STATION/POSITION TIME  SKY/WX   TEMP    WIND        PRES    VSBY  WAVE
                                AIR SEA DIR/SP/G                  HT/PER
                 (UTC)          (F)     (DEG/KT/KT) (MB)    (MI)  (FT/S)
NY HARB ENTRANCE 0000            25 38  340/ 19/ 21 1023.6          3/ 4
4S FIRE IS       NOT AVBL
20S FIRE ISLAND  2300               36              1022.1          4/ 5
23SW MTP         0000                                 N/A           3/ 4
HUDSON CANYON    NOT AVBL
EXECUTION ROCKS  NOT AVBL
WESTERN LI SOUND NOT AVBL
CENTRAL LI SOUND NOT AVBL
EASTERN LI SOUND NOT AVBL
ROBBINS REEF     0000            21     330/ 10/ 14 1023.2
$$


>>>>>>>>>>>>>>>>>>>>>>>>>>>> KEY <<<<<<<<<<<<<<<<<<<<<<<<<<<
>                                                          <
>     SKY/WX - SKY CONDITION/PRESENT WEATHER               <
>     TMP    - TEMPERATURE IN FAHRENHEIT                   <
>     DP     - DEWPOINT IN FAHRENHEIT                      <
>     RH     - RELATIVE HUMIDITY IN PERCENT                <
>     WIND   - DIRECTION AND SPEED IN MPH                  <
>     PRES   - MEAN SEA LEVEL PRESSURE IN INCHES OF HG     <
>     WCI    - WIND CHILL INDEX                            <
>     VSB    - VISIBILITY IN MILES                         <
>     HX     - HEAT INDEX                                  <
>     TC     - TEMPERATURE IN CELSIUS                      <
>     VRB    - VARIABLE WIND DIRECTION                     <
>                                                          <
>>>>>>>>>>>>>>>>>>>>>>>>>>>> KEY <<<<<<<<<<<<<<<<<<<<<<<<<<<





USA.gov is the U.S. government's official web portal to all federal, state and local government web resources and services.